User: anonymous   Login
Location: Unspecified
(0.0000°N, 0.0000°E)
Time: 10:50:56
(UTC+00:00)
Language:

OBJECT PG - Orbit

View from above orbital plane
View from above orbital plane
View from above satellite
View from above satellite

Ground track
Ground track

The orbit data is extracted from the following two-line orbital elements,

1 43595U 98067PG  19107.90313406 +.00013051 +00000-0 +16702-3 0  9999
2 43595 051.6360 294.8860 0003609 229.6705 130.3973 15.59565787038190
Epoch (UTC): 17 April 2019 21:40:30
Eccentricity: 0.0003609
inclination: 51.6360°
perigee height: 386 km
apogee height: 391 km
right ascension of ascending node: 294.8860°
argument of perigee: 229.6705°
revolutions per day: 15.59565787
mean anomaly at epoch: 130.3973°
orbit number at epoch: 3819

The dashed part of the orbit path shows where the satellite is in the earth's shadow,  

DLR